• în România
  • Lista ţărilor
  • Pe 7 zile
  • Temperatura apei
  • Hartă satelitară
  • Meteo pe hartă
  • Widget-uri
  • user-avatar
    Intrare

    Meteo pe oră la Klagenfurt

    Astăzi, 23 Februarie, Joi

    Timp Temperatura Precipitaţii Vânt Presiune Umiditate
    00:00 +1°C° 0 mm 2 m/s 686 mmHg 96%
    01:00 +1°C° 0 mm 2 m/s 686 mmHg 96%
    02:00 +1°C° 0 mm 2 m/s 686 mmHg 96%
    03:00 +1°C° 0 mm 2 m/s 686 mmHg 96%
    04:00 +1°C° 0 mm 2 m/s 686 mmHg 96%
    05:00 +1°C° 0 mm 2 m/s 686 mmHg 96%
    06:00 +1°C° 0 mm 2 m/s 686 mmHg 96%
    07:00 +1°C° 0 mm 2 m/s 686 mmHg 96%
    08:00 +2°C° 0 mm 2 m/s 686 mmHg 92%
    09:00 +4°C° 0 mm 2 m/s 686 mmHg 89%
    10:00 +5°C° 0 mm 2 m/s 687 mmHg 86%
    11:00 +6°C° 0 mm 2 m/s 687 mmHg 85%
    12:00 +5°C° 0 mm 3 m/s 686 mmHg 84%
    13:00 +7°C° 0 mm 3 m/s 686 mmHg 82%
    14:00 +7°C° 0 mm 3 m/s 685 mmHg 84%
    15:00 +5°C° 0 mm 3 m/s 685 mmHg 86%
    16:00 +5°C° 0 mm 3 m/s 684 mmHg 87%
    17:00 +4°C° 0 mm 3 m/s 684 mmHg 90%
    18:00 +3°C° 0 mm 3 m/s 683 mmHg 92%
    19:00 +3°C° 0 mm 3 m/s 683 mmHg 95%
    20:00 +3°C° 0,1 mm 3 m/s 683 mmHg 95%
    21:00 +3°C° 0,1 mm 3 m/s 682 mmHg 95%
    22:00 +3°C° 0,1 mm 3 m/s 682 mmHg 94%
    23:00 +3°C° 0,1 mm 3 m/s 682 mmHg 94%

    Mâine, 24 Februarie, Vineri

    Timp Temperatura Precipitaţii Vânt Presiune Umiditate
    00:00 +3°C° 0,1 mm 3 m/s 682 mmHg 95%
    01:00 +3°C° 0,1 mm 3 m/s 682 mmHg 95%
    02:00 +3°C° 0,1 mm 3 m/s 681 mmHg 95%
    03:00 +3°C° 0,1 mm 3 m/s 681 mmHg 95%
    04:00 +3°C° 0,1 mm 3 m/s 681 mmHg 95%
    05:00 +4°C° 0,1 mm 2 m/s 681 mmHg 95%
    06:00 +4°C° 0,1 mm 2 m/s 681 mmHg 95%
    07:00 +4°C° 0,1 mm 2 m/s 681 mmHg 95%
    08:00 +4°C° 0,3 mm 2 m/s 681 mmHg 94%
    09:00 +5°C° 0,3 mm 1 m/s 681 mmHg 93%
    10:00 +6°C° 0,3 mm 1 m/s 682 mmHg 92%
    11:00 +5°C° 1,4 mm 1 m/s 682 mmHg 92%
    12:00 +5°C° 1,4 mm 1 m/s 682 mmHg 93%
    13:00 +5°C° 1,4 mm 1 m/s 682 mmHg 93%
    14:00 +5°C° 2,1 mm 1 m/s 682 mmHg 93%
    15:00 +3°C° 2,1 mm 2 m/s 682 mmHg 93%
    16:00 +3°C° 2,1 mm 2 m/s 682 mmHg 93%
    17:00 +2°C° 2,3 mm 2 m/s 683 mmHg 94%
    18:00 +1°C° 2,3 mm 2 m/s 683 mmHg 94%
    19:00 +1°C° 2,3 mm 2 m/s 684 mmHg 95%
    20:00 -1°C° 1,1 mm 2 m/s 685 mmHg 95%
    21:00 -1°C° 1,1 mm 2 m/s 685 mmHg 96%
    22:00 -1°C° 1,1 mm 2 m/s 686 mmHg 96%
    23:00 -1°C° 0,3 mm 2 m/s 687 mmHg 96%

    Poimâine, 25 Februarie, Sâmbătă

    Timp Temperatura Precipitaţii Vânt Presiune Umiditate
    00:00 -1°C° 0,3 mm 2 m/s 687 mmHg 95%
    01:00 -2°C° 0,3 mm 3 m/s 687 mmHg 95%
    02:00 -2°C° 0 mm 2 m/s 688 mmHg 95%
    03:00 -3°C° 0 mm 2 m/s 688 mmHg 95%
    04:00 -3°C° 0 mm 2 m/s 689 mmHg 95%
    05:00 -4°C° 0 mm 2 m/s 689 mmHg 95%
    06:00 -5°C° 0 mm 2 m/s 689 mmHg 95%
    07:00 -5°C° 0 mm 2 m/s 690 mmHg 94%
    08:00 -4°C° 0 mm 2 m/s 691 mmHg 91%
    09:00 -3°C° 0 mm 2 m/s 691 mmHg 88%
    10:00 -1°C° 0 mm 2 m/s 692 mmHg 84%
    11:00 +1°C° 0 mm 2 m/s 692 mmHg 83%
    12:00 +1°C° 0 mm 2 m/s 692 mmHg 81%
    13:00 +2°C° 0 mm 2 m/s 693 mmHg 80%
    14:00 +2°C° 0 mm 2 m/s 692 mmHg 81%
    15:00 +3°C° 0 mm 1 m/s 692 mmHg 82%
    16:00 +3°C° 0 mm 1 m/s 692 mmHg 84%
    17:00 0°C° 0 mm 1 m/s 692 mmHg 87%
    18:00 -2°C° 0 mm 1 m/s 692 mmHg 91%
    19:00 -4°C° 0 mm 1 m/s 692 mmHg 94%
    20:00 -6°C° 0 mm 1 m/s 692 mmHg 94%
    21:00 -6°C° 0 mm 1 m/s 692 mmHg 94%
    22:00 -6°C° 0 mm 1 m/s 692 mmHg 93%
    23:00 -6°C° 0 mm 1 m/s 692 mmHg 93%

    26 Februarie, Duminică

    Timp Temperatura Precipitaţii Vânt Presiune Umiditate
    00:00 -6°C° 0 mm 1 m/s 692 mmHg 92%
    01:00 -6°C° 0 mm 1 m/s 692 mmHg 92%
    02:00 -6°C° 0 mm 1 m/s 691 mmHg 90%
    03:00 -6°C° 0 mm 1 m/s 691 mmHg 89%
    04:00 -4°C° 0 mm 1 m/s 690 mmHg 87%
    05:00 -4°C° 0 mm 1 m/s 690 mmHg 86%
    06:00 -4°C° 0 mm 1 m/s 690 mmHg 84%
    07:00 -4°C° 0 mm 1 m/s 690 mmHg 83%
    08:00 -2°C° 0 mm 1 m/s 690 mmHg 80%
    09:00 +1°C° 0 mm 1 m/s 691 mmHg 78%
    10:00 +3°C° 0 mm 1 m/s 691 mmHg 75%
    11:00 +4°C° 0 mm 1 m/s 691 mmHg 74%
    12:00 +5°C° 0 mm 1 m/s 691 mmHg 72%
    13:00 +6°C° 0 mm 1 m/s 690 mmHg 70%
    14:00 +6°C° 0 mm 1 m/s 690 mmHg 74%
    15:00 +6°C° 0 mm 1 m/s 690 mmHg 79%
    16:00 +5°C° 0 mm 0 m/s 689 mmHg 83%
    17:00 +2°C° 0 mm 0 m/s 689 mmHg 86%
    18:00 0°C° 0 mm 0 m/s 689 mmHg 89%
    19:00 -2°C° 0 mm 0 m/s 688 mmHg 91%
    20:00 -2°C° 0 mm 0 m/s 688 mmHg 90%
    21:00 -2°C° 0 mm 0 m/s 688 mmHg 89%
    22:00 -2°C° 0 mm 0 m/s 688 mmHg 87%
    23:00 -2°C° 0 mm 0 m/s 688 mmHg 87%

    27 Februarie, Luni

    Timp Temperatura Precipitaţii Vânt Presiune Umiditate
    00:00 -2°C° 0 mm 0 m/s 688 mmHg 87%
    01:00 -2°C° 0 mm 0 m/s 687 mmHg 86%
    02:00 -2°C° 0 mm 0 m/s 687 mmHg 86%
    03:00 -2°C° 0 mm 0 m/s 687 mmHg 86%
    04:00 -2°C° 0 mm 0 m/s 687 mmHg 86%
    05:00 -2°C° 0 mm 0 m/s 687 mmHg 86%
    06:00 -2°C° 0 mm 0 m/s 687 mmHg 86%
    07:00 -2°C° 0 mm 0 m/s 687 mmHg 86%
    08:00 +1°C° 0 mm 0 m/s 687 mmHg 81%
    09:00 +4°C° 0 mm 1 m/s 688 mmHg 77%
    10:00 +6°C° 0 mm 1 m/s 688 mmHg 72%
    11:00 +7°C° 0 mm 1 m/s 688 mmHg 72%
    12:00 +8°C° 0 mm 1 m/s 687 mmHg 71%
    13:00 +8°C° 0 mm 1 m/s 687 mmHg 71%
    14:00 +8°C° 0 mm 1 m/s 686 mmHg 75%
    15:00 +6°C° 0 mm 2 m/s 686 mmHg 80%
    16:00 +6°C° 0 mm 2 m/s 685 mmHg 84%
    17:00 +4°C° 0 mm 2 m/s 685 mmHg 88%
    18:00 +2°C° 0 mm 2 m/s 685 mmHg 92%
    19:00 +1°C° 0 mm 2 m/s 685 mmHg 96%
    20:00 +1°C° 0 mm 2 m/s 684 mmHg 96%
    21:00 -1°C° 0 mm 2 m/s 684 mmHg 96%
    22:00 -1°C° 0 mm 2 m/s 684 mmHg 96%
    23:00 -1°C° 0 mm 2 m/s 684 mmHg 95%

    28 Februarie, Marţi

    Timp Temperatura Precipitaţii Vânt Presiune Umiditate
    00:00 -1°C° 0 mm 2 m/s 684 mmHg 95%
    01:00 -1°C° 0 mm 2 m/s 683 mmHg 94%
    02:00 -1°C° 0 mm 2 m/s 683 mmHg 95%
    03:00 -1°C° 0 mm 2 m/s 683 mmHg 95%
    04:00 -1°C° 0 mm 2 m/s 682 mmHg 96%
    05:00 +1°C° 0,1 mm 2 m/s 682 mmHg 96%
    06:00 +1°C° 0,1 mm 2 m/s 682 mmHg 97%
    07:00 +2°C° 0,1 mm 2 m/s 682 mmHg 97%
    08:00 +3°C° 0,2 mm 2 m/s 682 mmHg 95%
    09:00 +3°C° 0,2 mm 2 m/s 682 mmHg 93%
    10:00 +4°C° 0,2 mm 2 m/s 682 mmHg 92%
    11:00 +4°C° 0,3 mm 3 m/s 682 mmHg 92%
    12:00 +4°C° 0,3 mm 3 m/s 681 mmHg 91%
    13:00 +4°C° 0,3 mm 3 m/s 681 mmHg 91%
    14:00 +4°C° 0,4 mm 3 m/s 680 mmHg 92%
    15:00 +4°C° 0,4 mm 3 m/s 680 mmHg 93%
    16:00 +4°C° 0,4 mm 3 m/s 679 mmHg 93%
    17:00 +4°C° 0,9 mm 3 m/s 679 mmHg 94%
    18:00 +3°C° 0,9 mm 3 m/s 679 mmHg 95%
    19:00 +3°C° 0,9 mm 3 m/s 679 mmHg 96%
    20:00 +3°C° 2,3 mm 3 m/s 679 mmHg 96%
    21:00 +4°C° 2,3 mm 2 m/s 679 mmHg 97%
    22:00 +4°C° 2,3 mm 2 m/s 679 mmHg 97%
    23:00 +3°C° 3,3 mm 2 m/s 679 mmHg 97%
    Arată mai mult